When you browse on this site, cookies collect data to enhance your experience and personalize the content and advertising you see.
Visit our Privacy Policy to learn more. By continuing to use the site, you agree to this use of cookies and data.
  • In Österreich
  • Länderverzeichnis
  • Für 7 Tage
  • Wassertemperatur
  • Wetterkarte
  • News
  • Widgets
  • user-avatar
    Anmelden

    Stündliche Wetter Canillo

    Heute, 15 Dezember, Sonntag

    Zeit Temperatur Niederschläge Wind Luftdruck Luftfeuchtigkeit
    00:00 +1°C° 0 mm 1 m/S 613 mmHg 83%
    01:00 +1°C° 0 mm 1 m/S 612 mmHg 81%
    02:00 +1°C° 0 mm 1 m/S 612 mmHg 78%
    03:00 +1°C° 0 mm 1 m/S 612 mmHg 76%
    04:00 +1°C° 0 mm 1 m/S 612 mmHg 74%
    05:00 +1°C° 0 mm 1 m/S 612 mmHg 72%
    06:00 +2°C° 0 mm 1 m/S 612 mmHg 70%
    07:00 +3°C° 0 mm 1 m/S 613 mmHg 70%
    08:00 +4°C° 0 mm 1 m/S 613 mmHg 69%
    09:00 +5°C° 0 mm 1 m/S 614 mmHg 69%
    10:00 +6°C° 0 mm 1 m/S 614 mmHg 69%
    11:00 +5°C° 0 mm 2 m/S 614 mmHg 69%
    12:00 +6°C° 0 mm 2 m/S 615 mmHg 69%
    13:00 +6°C° 0 mm 2 m/S 614 mmHg 72%
    14:00 +5°C° 0 mm 2 m/S 614 mmHg 74%
    15:00 +5°C° 0 mm 2 m/S 613 mmHg 77%
    16:00 +3°C° 0 mm 2 m/S 612 mmHg 78%
    17:00 +2°C° 0 mm 2 m/S 612 mmHg 79%
    18:00 +1°C° 0 mm 2 m/S 611 mmHg 80%
    19:00 +1°C° 0 mm 2 m/S 611 mmHg 78%
    20:00 +1°C° 0 mm 2 m/S 611 mmHg 75%
    21:00 -1°C° 0 mm 2 m/S 611 mmHg 72%
    22:00 -1°C° 0 mm 2 m/S 611 mmHg 72%
    23:00 -1°C° 0 mm 3 m/S 611 mmHg 72%

    Morgen, 16 Dezember, Montag

    Zeit Temperatur Niederschläge Wind Luftdruck Luftfeuchtigkeit
    00:00 -1°C° 0 mm 3 m/S 611 mmHg 72%
    01:00 0°C° 0 mm 3 m/S 610 mmHg 74%
    02:00 0°C° 0 mm 3 m/S 610 mmHg 76%
    03:00 0°C° 0 mm 3 m/S 610 mmHg 79%
    04:00 0°C° 0 mm 3 m/S 610 mmHg 79%
    05:00 0°C° 0 mm 3 m/S 610 mmHg 79%
    06:00 0°C° 0 mm 3 m/S 609 mmHg 79%
    07:00 +1°C° 0 mm 3 m/S 610 mmHg 78%
    08:00 +1°C° 0 mm 3 m/S 610 mmHg 77%
    09:00 +1°C° 0 mm 4 m/S 610 mmHg 75%
    10:00 +3°C° 0 mm 4 m/S 610 mmHg 74%
    11:00 +4°C° 0 mm 4 m/S 610 mmHg 72%
    12:00 +5°C° 0 mm 4 m/S 610 mmHg 70%
    13:00 +5°C° 0 mm 4 m/S 609 mmHg 75%
    14:00 +4°C° 0 mm 4 m/S 609 mmHg 79%
    15:00 +4°C° 0 mm 4 m/S 608 mmHg 84%
    16:00 +3°C° 0 mm 4 m/S 607 mmHg 84%
    17:00 +1°C° 0 mm 4 m/S 607 mmHg 84%
    18:00 +1°C° 0 mm 4 m/S 606 mmHg 84%
    19:00 0°C° 0 mm 4 m/S 606 mmHg 83%
    20:00 0°C° 0 mm 4 m/S 606 mmHg 82%
    21:00 0°C° 0 mm 4 m/S 606 mmHg 82%
    22:00 -1°C° 0 mm 4 m/S 606 mmHg 81%
    23:00 -1°C° 0 mm 4 m/S 606 mmHg 81%

    übermorgen, 17 Dezember, Dienstag

    Zeit Temperatur Niederschläge Wind Luftdruck Luftfeuchtigkeit
    00:00 0°C° 0 mm 3 m/S 606 mmHg 81%
    01:00 0°C° 0 mm 3 m/S 606 mmHg 82%
    02:00 0°C° 0 mm 3 m/S 605 mmHg 84%
    03:00 0°C° 0 mm 3 m/S 605 mmHg 85%
    04:00 0°C° 0 mm 3 m/S 605 mmHg 86%
    05:00 0°C° 0 mm 3 m/S 605 mmHg 88%
    06:00 +1°C° 0 mm 3 m/S 605 mmHg 89%
    07:00 +1°C° 0.1 mm 3 m/S 605 mmHg 89%
    08:00 +1°C° 0.1 mm 3 m/S 606 mmHg 88%
    09:00 +2°C° 0.1 mm 3 m/S 606 mmHg 87%
    10:00 +2°C° 0.6 mm 3 m/S 607 mmHg 87%
    11:00 +2°C° 0.6 mm 3 m/S 607 mmHg 86%
    12:00 +3°C° 0.6 mm 3 m/S 608 mmHg 85%
    13:00 +2°C° 0.8 mm 3 m/S 608 mmHg 87%
    14:00 +3°C° 0.8 mm 2 m/S 608 mmHg 90%
    15:00 +2°C° 0.8 mm 2 m/S 608 mmHg 92%
    16:00 +3°C° 0.7 mm 1 m/S 609 mmHg 94%
    17:00 +2°C° 0.7 mm 1 m/S 609 mmHg 95%
    18:00 +2°C° 0.7 mm 1 m/S 609 mmHg 97%
    19:00 +2°C° 0.1 mm 1 m/S 610 mmHg 97%
    20:00 +2°C° 0.1 mm 1 m/S 610 mmHg 97%
    21:00 +2°C° 0.1 mm 1 m/S 610 mmHg 97%
    22:00 +2°C° 0.6 mm 1 m/S 610 mmHg 97%
    23:00 +2°C° 0.6 mm 1 m/S 610 mmHg 97%

    18 Dezember, Mittwoch

    Zeit Temperatur Niederschläge Wind Luftdruck Luftfeuchtigkeit
    00:00 +2°C° 0.6 mm 1 m/S 610 mmHg 97%
    01:00 +2°C° 0.3 mm 1 m/S 611 mmHg 97%
    02:00 +2°C° 0.3 mm 1 m/S 611 mmHg 97%
    03:00 +2°C° 0.3 mm 1 m/S 611 mmHg 97%
    04:00 +2°C° 0.3 mm 1 m/S 611 mmHg 97%
    05:00 +2°C° 0.3 mm 1 m/S 611 mmHg 97%
    06:00 +2°C° 0.3 mm 1 m/S 611 mmHg 97%
    07:00 +2°C° 0 mm 1 m/S 612 mmHg 95%
    08:00 +2°C° 0 mm 1 m/S 612 mmHg 93%
    09:00 +3°C° 0 mm 1 m/S 612 mmHg 92%
    10:00 +3°C° 0 mm 1 m/S 613 mmHg 89%
    11:00 +4°C° 0 mm 1 m/S 613 mmHg 87%
    12:00 +4°C° 0 mm 2 m/S 613 mmHg 84%
    13:00 +4°C° 0 mm 2 m/S 613 mmHg 85%
    14:00 +4°C° 0 mm 2 m/S 613 mmHg 86%
    15:00 +4°C° 0 mm 2 m/S 613 mmHg 87%
    16:00 +2°C° 0 mm 2 m/S 612 mmHg 89%
    17:00 +2°C° 0 mm 1 m/S 612 mmHg 91%
    18:00 +1°C° 0 mm 1 m/S 611 mmHg 92%
    19:00 -1°C° 0 mm 2 m/S 611 mmHg 91%
    20:00 -2°C° 0 mm 2 m/S 611 mmHg 89%
    21:00 -2°C° 0 mm 2 m/S 611 mmHg 88%
    22:00 -2°C° 0 mm 2 m/S 611 mmHg 87%
    23:00 -2°C° 0 mm 2 m/S 611 mmHg 87%

    19 Dezember, Donnerstag

    Zeit Temperatur Niederschläge Wind Luftdruck Luftfeuchtigkeit
    00:00 -2°C° 0 mm 2 m/S 611 mmHg 87%
    01:00 -2°C° 0 mm 2 m/S 611 mmHg 87%
    02:00 -1°C° 0 mm 2 m/S 611 mmHg 87%
    03:00 -1°C° 0 mm 2 m/S 610 mmHg 87%
    04:00 +1°C° 0.1 mm 2 m/S 610 mmHg 89%
    05:00 +1°C° 0.1 mm 2 m/S 610 mmHg 91%
    06:00 +2°C° 0.1 mm 2 m/S 610 mmHg 92%
    07:00 +2°C° 1.6 mm 2 m/S 610 mmHg 93%
    08:00 +2°C° 1.6 mm 2 m/S 610 mmHg 93%
    09:00 +1°C° 1.6 mm 3 m/S 609 mmHg 93%
    10:00 +1°C° 0.8 mm 3 m/S 609 mmHg 93%
    11:00 +2°C° 0.8 mm 3 m/S 609 mmHg 92%
    12:00 +1°C° 0.8 mm 4 m/S 609 mmHg 91%
    13:00 +2°C° 1 mm 3 m/S 608 mmHg 93%
    14:00 +1°C° 1 mm 3 m/S 608 mmHg 94%
    15:00 +1°C° 1 mm 3 m/S 607 mmHg 95%
    16:00 +1°C° 0.6 mm 2 m/S 607 mmHg 95%
    17:00 -1°C° 0.6 mm 2 m/S 607 mmHg 96%
    18:00 -2°C° 0.6 mm 2 m/S 607 mmHg 96%
    19:00 -2°C° 0 mm 2 m/S 607 mmHg 95%
    20:00 -3°C° 0 mm 2 m/S 607 mmHg 94%
    21:00 -3°C° 0 mm 2 m/S 607 mmHg 93%
    22:00 -3°C° 0 mm 2 m/S 606 mmHg 92%
    23:00 -4°C° 0 mm 3 m/S 606 mmHg 91%

    20 Dezember, Freitag

    Zeit Temperatur Niederschläge Wind Luftdruck Luftfeuchtigkeit
    00:00 -4°C° 0 mm 3 m/S 606 mmHg 90%
    01:00 -4°C° 0.9 mm 3 m/S 605 mmHg 91%
    02:00 -4°C° 0.9 mm 4 m/S 603 mmHg 92%
    03:00 -3°C° 0.9 mm 4 m/S 602 mmHg 92%
    04:00 -3°C° 3.4 mm 4 m/S 601 mmHg 93%
    05:00 -2°C° 3.4 mm 4 m/S 600 mmHg 94%
    06:00 -2°C° 3.4 mm 4 m/S 600 mmHg 94%
    07:00 0°C° 0.5 mm 3 m/S 600 mmHg 95%
    08:00 0°C° 0.5 mm 3 m/S 600 mmHg 95%
    09:00 +1°C° 0.5 mm 3 m/S 599 mmHg 95%
    10:00 +2°C° 0.1 mm 2 m/S 600 mmHg 95%
    11:00 +2°C° 0.1 mm 2 m/S 600 mmHg 96%
    12:00 +3°C° 0.1 mm 1 m/S 600 mmHg 97%
    13:00 +2°C° 0.1 mm 2 m/S 600 mmHg 96%
    14:00 +1°C° 0.1 mm 2 m/S 601 mmHg 95%
    15:00 +1°C° 0.1 mm 2 m/S 602 mmHg 94%
    16:00 -1°C° 0 mm 3 m/S 602 mmHg 94%
    17:00 -2°C° 0 mm 3 m/S 602 mmHg 93%
    18:00 -4°C° 0 mm 3 m/S 603 mmHg 93%
    19:00 -4°C° 0.1 mm 3 m/S 604 mmHg 93%
    20:00 -4°C° 0.1 mm 3 m/S 604 mmHg 93%
    21:00 -4°C° 0.1 mm 3 m/S 605 mmHg 93%
    22:00 -4°C° 0.2 mm 3 m/S 605 mmHg 93%
    23:00 -3°C° 0.2 mm 2 m/S 606 mmHg 94%
    Mehr zeigen